sat.trackr.live / text

‹ back to catalog

STARLINK-32958

NORAD 63563 · 2025-075R

PAYLOAD ACTIVE UNKNOWN

§ Identity

Operator
Country
US
Launch date
2025-04-13
Launch site
AFETR
Launch vehicle
Mass (kg)
RCS (m²)

Purposes: comms

External: N2YO · Heavens-Above · Gunter

§ Orbital elements

Epoch: 2026-05-25T03:59:39.344640Z

Period
94.27 min
Inclination
42.9998°
Eccentricity
0.0001297
Mean motion
15.27591827 rev/d
Perigee alt
482.1 km
Apogee alt
483.9 km
Semi-major
6,861.2 km
B*
7.3292e-4
RAAN
198.7221°
Arg perigee
269.6048°
Mean anomaly
90.4655°
Rev number
6,362

§ Raw data

STARLINK-329581 63563U 25075R   26145.16642760  .00019968  00000+0  73292-3 0  99902 63563  42.9998 198.7221 0001297 269.6048  90.4655 15.27591827 63623

JSON: /api/v1/satellites/63563 · /tle

For live sub-satellite position, see the globe view (requires WebGL).

§ Visibility from observer

Set your observer location to see the next 7 days of passes ≥ 10°. The values pass through the URL so the page stays shareable.

No JS? Fill the form by hand. The geolocation button needs JavaScript.